Location: Wanzleben
(52.0609°N, 11.4408°E)
Time: 15:55:00
(UTC+00:00)

Cosmos 1025 Rocket - Pass Details

Date: 18 September 2020
Orbit: 595 x 617 km, 82.5° (Epoch: 20 October)

Event Time Altitude Azimuth Distance (km) Brightness Sun altitude
Rises 18:44:36 0° 349° (N) 2,885 7.0 -13.4°
Reaches altitude 10° 18:46:49 10° 350° (N) 1,979 6.1 -13.7°
Maximum altitude 18:51:13 88° 80° (E) 622 3.0 -14.3°
Drops below altitude 10° 18:55:36 10° 170° (S) 1,974 5.3 -14.9°
Enters shadow 18:56:09 - 170° (S) 2,194 5.6 -15.0°
